Find Starlink 5836

NORAD ID: 56386 Int'l Des: 2023-061 Owner: SPXS Country: US Constellation: starlink operational
LEOCIRCULAR

現在のビュー

3D地球を読み込み中...

About Starlink 5836

Starlink 5836 (NORAD 56386) is a starlink constellation satellite (v1.5) launched May 4, 2023 by SPXS of US. It operates in LEO, CIRCULAR orbit with a mass of 305.00 kg.

Starlink 5836について

説明を読み込み中...

次回通過

Passes for default location (London). Set your location on the main map for personalized predictions.

高度履歴

Loading altitude history...

軌道要素

1 56386U 23061N 26171.45704110 .00000753 00000-0 36883-4 0 9996
2 56386 43.0062 337.7751 0001638 267.3126 92.7538 15.27582389172467
Epoch: Jun 20, 2026 • Age: 30 hours

現在のステータス

高度 484.1 km
速度 7.63 km/s
衛星直下点 28.58°N, 158.35°W
打ち上げ日 May 4, 2023
運用期間 3.1 years
タイプ internet

技術仕様

分類 Payload
質量 305.00 kg
乾燥質量 290.00 kg
総質量 305.00 kg
長さ 0.20 m
直径 2.80 m
スパン 9.00 m
形状 Box + pan
製造者 SPXS
バスタイプ Starlink
フェーズステータス In Orbit
所有者/国 SPXS/US

Most Searched